sat.trackr.live / text

‹ back to catalog

FLOCK 4Q-13

NORAD 58328 · 2023-174CA

PAYLOAD ACTIVE UNKNOWN

§ Identity

Operator
Country
US
Launch date
2023-11-11
Launch site
AFWTR
Launch vehicle
Mass (kg)
RCS (m²)

Purposes: earth_obs

External: N2YO · Heavens-Above · Gunter

§ Orbital elements

Epoch: 2026-05-25T05:16:55.265376Z

Period
92.87 min
Inclination
97.3998°
Eccentricity
0.0005669
Mean motion
15.50548170 rev/d
Perigee alt
411.3 km
Apogee alt
419.0 km
Semi-major
6,793.3 km
B*
3.9232e-4
RAAN
235.3823°
Arg perigee
215.8834°
Mean anomaly
144.2037°
Rev number
14,211

§ Raw data

FLOCK 4Q-131 58328U 23174CA  26145.22008409  .00022363  00000+0  39232-3 0  99932 58328  97.3998 235.3823 0005669 215.8834 144.2037 15.50548170142112

JSON: /api/v1/satellites/58328 · /tle

For live sub-satellite position, see the globe view (requires WebGL).

§ Visibility from observer

Set your observer location to see the next 7 days of passes ≥ 10°. The values pass through the URL so the page stays shareable.

No JS? Fill the form by hand. The geolocation button needs JavaScript.